JST760 YSSY-YPAD

Flight info

Callsign JST760
Flight time N/A
Altitude 36000
Route TESAT A576 KADOM H44 MAXEM Q60 KAKLU H309 AD
Aircraft A321/M-SDE3FGHIRWY/LB1

Departure

Time 2026-05-06 16:53
Airport Sydney Kingsford Smith International Airport (YSSY)

Arrival

Time N/A
Airport Adelaide International Airport (YPAD)
Time Latitude Longitude Altitude Speed Heading
2026-05-06 16:14 -33.93462 151.17700 30 ft 0 kts 99°
2026-05-06 16:40 -33.93461 151.17695 30 ft 3 kts 99°
2026-05-06 16:40 -33.93457 151.17668 30 ft 3 kts 101°
2026-05-06 16:41 -33.93452 151.17641 30 ft 3 kts 106°
2026-05-06 16:41 -33.93445 151.17616 30 ft 3 kts 123°
2026-05-06 16:41 -33.93431 151.17599 30 ft 3 kts 168°
2026-05-06 16:41 -33.93428 151.17599 30 ft 0 kts 172°
2026-05-06 16:43 -33.93429 151.17599 30 ft 0 kts 172°
2026-05-06 16:45 -33.93457 151.17597 30 ft 8 kts 185°
2026-05-06 16:45 -33.93531 151.17596 30 ft 13 kts 172°
2026-05-06 16:46 -33.93622 151.17608 30 ft 13 kts 193°
2026-05-06 16:46 -33.93709 151.17564 29 ft 15 kts 178°
2026-05-06 16:46 -33.93813 151.17587 29 ft 16 kts 168°
2026-05-06 16:46 -33.93923 151.17617 29 ft 17 kts 167°
2026-05-06 16:47 -33.94041 151.17648 28 ft 18 kts 167°
2026-05-06 16:47 -33.94166 151.17682 29 ft 18 kts 167°
2026-05-06 16:47 -33.94293 151.17719 30 ft 19 kts 165°
2026-05-06 16:47 -33.94423 151.17761 30 ft 20 kts 165°
2026-05-06 16:48 -33.94559 151.17803 30 ft 21 kts 166°
2026-05-06 16:48 -33.94701 151.17842 30 ft 21 kts 167°
2026-05-06 16:48 -33.94846 151.17879 30 ft 22 kts 168°
2026-05-06 16:48 -33.94997 151.17917 30 ft 22 kts 168°
2026-05-06 16:49 -33.95122 151.17950 30 ft 18 kts 167°
2026-05-06 16:49 -33.95211 151.17878 30 ft 18 kts 253°
2026-05-06 16:49 -33.95240 151.17729 29 ft 19 kts 257°
2026-05-06 16:49 -33.95304 151.17597 29 ft 19 kts 207°
2026-05-06 16:50 -33.95432 151.17603 30 ft 19 kts 167°
2026-05-06 16:50 -33.95563 151.17638 30 ft 20 kts 167°
2026-05-06 16:50 -33.95699 151.17674 30 ft 20 kts 168°
2026-05-06 16:50 -33.95839 151.17709 30 ft 21 kts 168°
2026-05-06 16:51 -33.95986 151.17748 30 ft 22 kts 168°
2026-05-06 16:51 -33.96136 151.17787 30 ft 22 kts 168°
2026-05-06 16:51 -33.96292 151.17826 30 ft 23 kts 168°
2026-05-06 16:51 -33.96381 151.17850 30 ft 13 kts 167°
2026-05-06 16:52 -33.96434 151.17923 30 ft 13 kts 92°
2026-05-06 16:52 -33.96421 151.18012 30 ft 9 kts 76°
2026-05-06 16:52 -33.96382 151.18050 30 ft 8 kts
2026-05-06 16:52 -33.96323 151.18038 29 ft 11 kts 348°
2026-05-06 16:53 -33.96037 151.17960 27 ft 79 kts 347°
2026-05-06 16:53 -33.95283 151.17761 30 ft 140 kts 347°
2026-05-06 16:53 -33.94179 151.17483 200 ft 173 kts 347°
2026-05-06 16:53 -33.93015 151.17247 879 ft 172 kts 344°
2026-05-06 16:54 -33.91915 151.16756 1552 ft 168 kts 324°
2026-05-06 16:54 -33.90964 151.15926 2020 ft 174 kts 313°
2026-05-06 16:54 -33.90134 151.14703 2087 ft 199 kts 298°
2026-05-06 16:54 -33.89498 151.13094 2113 ft 229 kts 293°
2026-05-06 16:55 -33.88789 151.11301 2605 ft 241 kts 294°
2026-05-06 16:55 -33.88047 151.09467 3376 ft 245 kts 295°
2026-05-06 16:55 -33.87285 151.07607 4178 ft 250 kts 296°
2026-05-06 16:55 -33.86513 151.05728 4980 ft 252 kts 296°
2026-05-06 16:56 -33.85735 151.03826 5730 ft 255 kts 295°
2026-05-06 16:56 -33.84943 151.01891 6471 ft 259 kts 294°
2026-05-06 16:56 -33.84320 150.99851 7159 ft 261 kts 284°
2026-05-06 16:56 -33.83884 150.97728 7890 ft 263 kts 282°
2026-05-06 16:57 -33.83502 150.95564 8616 ft 266 kts 281°
2026-05-06 16:57 -33.83124 150.93372 9376 ft 268 kts 281°
2026-05-06 16:57 -33.82739 150.91167 10081 ft 271 kts 282°
2026-05-06 16:57 -33.82329 150.88882 10371 ft 291 kts 282°
2026-05-06 16:58 -33.81879 150.86411 10516 ft 314 kts 282°
2026-05-06 16:58 -33.81388 150.83765 10652 ft 334 kts 283°
2026-05-06 16:58 -33.80867 150.81004 11116 ft 343 kts 283°
2026-05-06 16:58 -33.80331 150.78192 11750 ft 346 kts 283°
2026-05-06 16:59 -33.79794 150.75374 12422 ft 348 kts 283°
2026-05-06 16:59 -33.79254 150.72533 13078 ft 350 kts 283°
2026-05-06 16:59 -33.78702 150.69627 13751 ft 353 kts 283°
2026-05-06 16:59 -33.78157 150.66745 14362 ft 355 kts 283°
2026-05-06 17:00 -33.77609 150.63847 14960 ft 357 kts 284°
2026-05-06 17:00 -33.77051 150.60928 15576 ft 359 kts 284°
2026-05-06 17:00 -33.76487 150.57999 16197 ft 361 kts 284°
2026-05-06 17:00 -33.75918 150.55054 16806 ft 363 kts 284°
2026-05-06 17:01 -33.75345 150.52084 17400 ft 366 kts 284°
2026-05-06 17:01 -33.74771 150.49097 17997 ft 368 kts 284°
2026-05-06 17:01 -33.74193 150.46087 18538 ft 371 kts 284°
2026-05-06 17:01 -33.73612 150.43062 19019 ft 374 kts 284°
2026-05-06 17:02 -33.73025 150.40015 19537 ft 375 kts 284°
2026-05-06 17:02 -33.72434 150.36952 20052 ft 377 kts 284°
2026-05-06 17:02 -33.71836 150.33876 20542 ft 379 kts 284°
2026-05-06 17:02 -33.71334 150.30765 21020 ft 382 kts 278°
2026-05-06 17:03 -33.71288 150.27557 21515 ft 387 kts 268°
2026-05-06 17:03 -33.71572 150.24341 21970 ft 389 kts 267°
2026-05-06 17:03 -33.71863 150.21105 22453 ft 390 kts 267°
2026-05-06 17:03 -33.72153 150.17815 22925 ft 392 kts 267°
2026-05-06 17:04 -33.72436 150.14552 23354 ft 395 kts 267°
2026-05-06 17:04 -33.72718 150.11259 23756 ft 397 kts 267°
2026-05-06 17:04 -33.73003 150.07945 24123 ft 399 kts 267°
2026-05-06 17:04 -33.73287 150.04624 24513 ft 401 kts 268°
2026-05-06 17:05 -33.73569 150.01290 24903 ft 402 kts 268°
2026-05-06 17:05 -33.73853 149.97947 25279 ft 403 kts 268°
2026-05-06 17:05 -33.74142 149.94586 25658 ft 405 kts 268°
2026-05-06 17:05 -33.74429 149.91221 26027 ft 406 kts 268°
2026-05-06 17:06 -33.74716 149.87840 26376 ft 407 kts 268°
2026-05-06 17:06 -33.75006 149.84451 26717 ft 409 kts 268°
2026-05-06 17:06 -33.75295 149.81049 27075 ft 410 kts 268°
2026-05-06 17:06 -33.75587 149.77636 27448 ft 411 kts 268°
2026-05-06 17:07 -33.75878 149.74206 27768 ft 414 kts 268°
2026-05-06 17:07 -33.76166 149.70761 28122 ft 416 kts 268°
2026-05-06 17:07 -33.76454 149.67299 28463 ft 418 kts 268°
2026-05-06 17:07 -33.76742 149.63829 28889 ft 416 kts 268°
2026-05-06 17:08 -33.77026 149.60375 29383 ft 414 kts 269°
2026-05-06 17:08 -33.77307 149.56943 29930 ft 411 kts 269°
2026-05-06 17:08 -33.77589 149.53543 30405 ft 408 kts 269°
2026-05-06 17:08 -33.77867 149.50158 30812 ft 405 kts 269°
2026-05-06 17:09 -33.78141 149.46798 31203 ft 403 kts 269°
2026-05-06 17:09 -33.78410 149.43456 31608 ft 401 kts 269°
2026-05-06 17:09 -33.78677 149.40127 32023 ft 398 kts 269°
2026-05-06 17:09 -33.78943 149.36822 32435 ft 396 kts 269°
2026-05-06 17:10 -33.79207 149.33536 32846 ft 394 kts 269°
2026-05-06 17:10 -33.79471 149.30272 33248 ft 391 kts 269°
2026-05-06 17:10 -33.79733 149.27033 33646 ft 389 kts 269°
2026-05-06 17:10 -33.79997 149.23763 34042 ft 387 kts 270°
2026-05-06 17:11 -33.80254 149.20552 34378 ft 385 kts 269°
2026-05-06 17:11 -33.80508 149.17358 34676 ft 383 kts 270°
2026-05-06 17:11 -33.80756 149.14176 34980 ft 382 kts 270°
2026-05-06 17:11 -33.81001 149.10997 35264 ft 381 kts 270°
2026-05-06 17:12 -33.81245 149.07832 35534 ft 380 kts 269°
2026-05-06 17:12 -33.81491 149.04668 35798 ft 380 kts 269°
2026-05-06 17:12 -33.81733 149.01553 36056 ft 379 kts 269°
2026-05-06 17:13 -33.82226 148.95197 36136 ft 379 kts 269°
2026-05-06 17:13 -33.82708 148.88937 36143 ft 378 kts 269°
2026-05-06 17:14 -33.83188 148.82599 36138 ft 378 kts 269°
2026-05-06 17:14 -33.83665 148.76296 36137 ft 378 kts 269°
2026-05-06 17:15 -33.84138 148.70005 36145 ft 377 kts 269°
2026-05-06 17:15 -33.84583 148.64783 36151 ft 380 kts 264°
2026-05-06 17:16 -33.85632 148.58541 36154 ft 381 kts 264°
2026-05-06 17:16 -33.86839 148.51264 36176 ft 382 kts 264°
2026-05-06 17:17 -33.87706 148.46010 36177 ft 382 kts 264°
2026-05-06 17:17 -33.88745 148.39754 36167 ft 381 kts 264°
2026-05-06 17:18 -33.89784 148.33492 36156 ft 381 kts 264°
2026-05-06 17:18 -33.90819 148.27230 36154 ft 382 kts 264°
2026-05-06 17:19 -33.91844 148.20961 36160 ft 381 kts 264°
2026-05-06 17:19 -33.92861 148.14697 36161 ft 381 kts 264°
2026-05-06 17:20 -33.93883 148.08433 36156 ft 381 kts 264°
2026-05-06 17:20 -33.94902 148.02171 36155 ft 381 kts 264°
2026-05-06 17:21 -33.95916 147.95907 36150 ft 381 kts 264°
2026-05-06 17:21 -33.96927 147.89634 36153 ft 381 kts 264°
2026-05-06 17:22 -33.97934 147.83371 36149 ft 381 kts 264°
2026-05-06 17:22 -33.98936 147.77107 36154 ft 381 kts 264°
2026-05-06 17:23 -33.99936 147.70850 36155 ft 380 kts 264°
2026-05-06 17:23 -34.00936 147.64596 36151 ft 380 kts 264°
2026-05-06 17:24 -34.01928 147.58343 36156 ft 379 kts 264°
2026-05-06 17:24 -34.02909 147.52100 36145 ft 378 kts 264°
2026-05-06 17:25 -34.03895 147.45840 36144 ft 378 kts 264°
2026-05-06 17:25 -34.04869 147.39602 36148 ft 379 kts 264°
2026-05-06 17:26 -34.05840 147.33393 36142 ft 379 kts 264°
2026-05-06 17:26 -34.06825 147.27108 36152 ft 379 kts 264°
2026-05-06 17:27 -34.07797 147.20860 36159 ft 379 kts 264°
2026-05-06 17:27 -34.08760 147.14609 36160 ft 379 kts 264°
2026-05-06 17:28 -34.09722 147.08364 36155 ft 379 kts 264°
2026-05-06 17:28 -34.10686 147.02113 36153 ft 378 kts 264°
2026-05-06 17:29 -34.11633 146.95881 36148 ft 378 kts 264°
2026-05-06 17:29 -34.12586 146.89637 36153 ft 379 kts 264°
2026-05-06 17:30 -34.13540 146.83381 36161 ft 379 kts 264°
2026-05-06 17:30 -34.14491 146.77108 36164 ft 379 kts 264°
2026-05-06 17:31 -34.15435 146.70840 36175 ft 380 kts 264°
2026-05-06 17:31 -34.16382 146.64561 36174 ft 380 kts 264°
2026-05-06 17:32 -34.17327 146.58282 36218 ft 380 kts 264°
2026-05-06 17:32 -34.18266 146.52018 36171 ft 378 kts 264°
2026-05-06 17:33 -34.19192 146.45761 36168 ft 379 kts 265°
2026-05-06 17:33 -34.20118 146.39499 36171 ft 379 kts 265°
2026-05-06 17:34 -34.21040 146.33222 36175 ft 379 kts 265°
2026-05-06 17:34 -34.21962 146.26938 36171 ft 380 kts 264°
2026-05-06 17:35 -34.22885 146.20649 36179 ft 380 kts 264°
2026-05-06 17:35 -34.23807 146.14363 36188 ft 380 kts 264°
2026-05-06 17:36 -34.25172 146.04949 36185 ft 377 kts 265°
2026-05-06 17:36 -34.25963 145.98692 36186 ft 377 kts 266°
2026-05-06 17:37 -34.26710 145.92423 36191 ft 377 kts 266°
2026-05-06 17:37 -34.27465 145.86154 36198 ft 377 kts 265°
2026-05-06 17:38 -34.28242 145.79840 36199 ft 377 kts 265°
2026-05-06 17:38 -34.29012 145.73561 36199 ft 377 kts 265°
2026-05-06 17:39 -34.29772 145.67280 36212 ft 377 kts 265°
2026-05-06 17:39 -34.30535 145.61003 36258 ft 377 kts 265°
2026-05-06 17:40 -34.31292 145.54755 36205 ft 374 kts 265°
2026-05-06 17:40 -34.32042 145.48513 36196 ft 375 kts 265°
2026-05-06 17:41 -34.32791 145.42264 36209 ft 376 kts 265°
2026-05-06 17:41 -34.33531 145.35996 36221 ft 376 kts 265°
2026-05-06 17:42 -34.34272 145.29727 36225 ft 377 kts 265°
2026-05-06 17:42 -34.35016 145.23452 36212 ft 377 kts 265°
2026-05-06 17:43 -34.35754 145.17181 36223 ft 377 kts 265°
2026-05-06 17:43 -34.36488 145.10903 36227 ft 376 kts 265°
2026-05-06 17:44 -34.37218 145.04619 36221 ft 374 kts 265°
2026-05-06 17:44 -34.37932 144.98373 36198 ft 375 kts 265°
2026-05-06 17:45 -34.38651 144.92106 36217 ft 376 kts 265°
2026-05-06 17:45 -34.39379 144.85821 36217 ft 377 kts 265°
2026-05-06 17:46 -34.40100 144.79525 36244 ft 378 kts 265°
2026-05-06 17:46 -34.40815 144.73230 36236 ft 378 kts 265°
2026-05-06 17:47 -34.41527 144.66923 36243 ft 378 kts 265°
2026-05-06 17:47 -34.42238 144.60611 36279 ft 378 kts 264°
2026-05-06 17:48 -34.42946 144.54289 36274 ft 379 kts 264°
2026-05-06 17:48 -34.43652 144.47961 36248 ft 379 kts 264°
2026-05-06 17:49 -34.44241 144.42651 36258 ft 380 kts 264°
2026-05-06 17:49 -34.44939 144.36308 36265 ft 380 kts 264°
2026-05-06 17:50 -34.45636 144.29955 36267 ft 380 kts 264°
2026-05-06 17:50 -34.46335 144.23606 36252 ft 380 kts 264°
2026-05-06 17:51 -34.47035 144.17246 36299 ft 381 kts 264°
2026-05-06 17:51 -34.47720 144.10882 36293 ft 381 kts 264°
2026-05-06 17:52 -34.48404 144.04516 36288 ft 382 kts 264°
2026-05-06 17:52 -34.49087 143.98141 36287 ft 381 kts 264°
2026-05-06 17:53 -34.49773 143.91728 36288 ft 381 kts 264°
2026-05-06 17:53 -34.50454 143.85363 36286 ft 380 kts 264°
2026-05-06 17:54 -34.51123 143.78998 36271 ft 380 kts 264°
2026-05-06 17:54 -34.51794 143.72629 36265 ft 381 kts 263°
2026-05-06 17:55 -34.52466 143.66252 36277 ft 381 kts 263°
2026-05-06 17:55 -34.53130 143.59912 36286 ft 382 kts 263°
2026-05-06 17:56 -34.53793 143.53515 36284 ft 382 kts 263°
2026-05-06 17:56 -34.54448 143.47118 36277 ft 382 kts 263°
2026-05-06 17:57 -34.55106 143.40714 36285 ft 383 kts 263°
2026-05-06 17:57 -34.55763 143.34306 36291 ft 382 kts 263°
2026-05-06 17:58 -34.56417 143.27901 36290 ft 383 kts 263°
2026-05-06 17:58 -34.57063 143.21488 36266 ft 383 kts 263°
2026-05-06 17:59 -34.57706 143.15066 36279 ft 383 kts 263°
2026-05-06 17:59 -34.58341 143.08631 36289 ft 384 kts 263°
2026-05-06 18:00 -34.58973 143.02195 36300 ft 384 kts 263°
2026-05-06 18:00 -34.59613 142.95745 36281 ft 385 kts 263°
2026-05-06 18:01 -34.60250 142.89300 36294 ft 385 kts 263°
2026-05-06 18:01 -34.60883 142.82843 36301 ft 385 kts 263°
2026-05-06 18:02 -34.61507 142.76373 36274 ft 386 kts 262°
2026-05-06 18:02 -34.62126 142.69910 36275 ft 386 kts 262°
2026-05-06 18:03 -34.62749 142.63439 36288 ft 387 kts 262°
2026-05-06 18:03 -34.63373 142.56940 36298 ft 388 kts 262°
2026-05-06 18:04 -34.63883 142.50421 36284 ft 388 kts 264°
2026-05-06 18:04 -34.64219 142.43863 36292 ft 389 kts 265°
2026-05-06 18:05 -34.64551 142.37246 36303 ft 390 kts 265°
2026-05-06 18:05 -34.64913 142.30668 36338 ft 390 kts 264°
2026-05-06 18:06 -34.65284 142.24087 36315 ft 391 kts 264°
2026-05-06 18:06 -34.65652 142.17494 36321 ft 392 kts 264°
2026-05-06 18:07 -34.66014 142.10878 36322 ft 392 kts 264°
2026-05-06 18:07 -34.66371 142.04267 36299 ft 393 kts 264°
2026-05-06 18:08 -34.66725 141.97638 36308 ft 394 kts 264°
2026-05-06 18:08 -34.67080 141.90998 36315 ft 394 kts 264°
2026-05-06 18:09 -34.67425 141.84347 36321 ft 395 kts 264°
2026-05-06 18:09 -34.67767 141.77684 36318 ft 395 kts 263°
2026-05-06 18:10 -34.68112 141.71014 36327 ft 396 kts 263°
2026-05-06 18:10 -34.68459 141.64274 36333 ft 397 kts 264°
2026-05-06 18:11 -34.68797 141.57612 36336 ft 397 kts 264°
2026-05-06 18:11 -34.69124 141.50905 36348 ft 398 kts 264°
2026-05-06 18:12 -34.69450 141.44194 36348 ft 398 kts 264°
2026-05-06 18:12 -34.69775 141.37478 36349 ft 398 kts 264°
2026-05-06 18:13 -34.70101 141.30710 36342 ft 399 kts 263°
2026-05-06 18:13 -34.70424 141.23977 36344 ft 399 kts 263°
2026-05-06 18:14 -34.70739 141.17232 36345 ft 400 kts 263°
2026-05-06 18:14 -34.71049 141.10473 36342 ft 401 kts 263°
2026-05-06 18:15 -34.71359 141.03701 36344 ft 402 kts 263°
2026-05-06 18:15 -34.71667 140.96914 36353 ft 402 kts 263°
2026-05-06 18:16 -34.71970 140.90123 36359 ft 403 kts 264°
2026-05-06 18:16 -34.72265 140.83319 36350 ft 403 kts 263°
2026-05-06 18:17 -34.72569 140.76452 36350 ft 405 kts 263°
2026-05-06 18:17 -34.72871 140.69610 36356 ft 406 kts 263°
2026-05-06 18:18 -34.73159 140.62758 36170 ft 407 kts 263°
2026-05-06 18:18 -34.73300 140.59320 35890 ft 406 kts 263°
2026-05-06 18:18 -34.73439 140.55896 35360 ft 406 kts 263°
2026-05-06 18:19 -34.73577 140.52457 34655 ft 409 kts 262°
2026-05-06 18:19 -34.73719 140.48982 33857 ft 414 kts 261°
2026-05-06 18:19 -34.73866 140.45470 33062 ft 417 kts 261°
2026-05-06 18:19 -34.74014 140.41939 32233 ft 420 kts 261°
2026-05-06 18:20 -34.74160 140.38380 31468 ft 423 kts 261°
2026-05-06 18:20 -34.74258 140.35958 30869 ft 427 kts 261°
2026-05-06 18:20 -34.74453 140.31135 29546 ft 434 kts 261°
2026-05-06 18:20 -34.74551 140.28654 28905 ft 436 kts 261°
2026-05-06 18:21 -34.74693 140.24964 27971 ft 438 kts 261°
2026-05-06 18:21 -34.74833 140.21257 26961 ft 441 kts 262°
2026-05-06 18:21 -34.74971 140.17566 26417 ft 433 kts 262°
2026-05-06 18:21 -34.75106 140.13928 25771 ft 428 kts 262°
2026-05-06 18:22 -34.75239 140.10331 25116 ft 424 kts 262°
2026-05-06 18:22 -34.75370 140.06776 24471 ft 419 kts 262°
2026-05-06 18:22 -34.75502 140.03252 23824 ft 414 kts 262°
2026-05-06 18:22 -34.75633 139.99775 23140 ft 409 kts 262°
2026-05-06 18:23 -34.75760 139.96349 22495 ft 403 kts 262°
2026-05-06 18:23 -34.75881 139.92973 21915 ft 397 kts 262°
2026-05-06 18:23 -34.76000 139.89643 21299 ft 392 kts 262°
2026-05-06 18:23 -34.76119 139.86351 20712 ft 388 kts 262°
2026-05-06 18:24 -34.76237 139.83097 20143 ft 384 kts 262°
2026-05-06 18:24 -34.76356 139.79870 19588 ft 380 kts 262°
2026-05-06 18:24 -34.76472 139.76666 19058 ft 378 kts 262°
2026-05-06 18:24 -34.76583 139.73483 18502 ft 376 kts 262°
2026-05-06 18:25 -34.76695 139.70322 17958 ft 372 kts 262°
2026-05-06 18:25 -34.76802 139.67195 17444 ft 368 kts 262°
2026-05-06 18:25 -34.76904 139.64112 16932 ft 363 kts 262°
2026-05-06 18:25 -34.77004 139.61063 16429 ft 359 kts 262°
2026-05-06 18:26 -34.77104 139.58053 15916 ft 354 kts 262°
2026-05-06 18:26 -34.77206 139.55078 15383 ft 350 kts 262°
2026-05-06 18:26 -34.77305 139.52135 14838 ft 347 kts 262°
2026-05-06 18:26 -34.77398 139.49222 14330 ft 342 kts 262°
2026-05-06 18:27 -34.77490 139.46303 13748 ft 340 kts 262°
2026-05-06 18:27 -34.77579 139.43484 13201 ft 336 kts 262°
2026-05-06 18:27 -34.77670 139.40664 12658 ft 332 kts 262°
2026-05-06 18:27 -34.77748 139.37876 12117 ft 328 kts 262°
2026-05-06 18:28 -34.77816 139.35119 11579 ft 325 kts 263°